,,Stat6,,Stat2,,Stat8,,Stat9,,Stat10,,Wind1,,Wind1,
time,status,PA1M_AVG,status,PR1M_SUM,status,RH1M_AVG,status,SR1M_AVG,status,TA1M_AVG,status,W1dAve1m,status,W1sAve1m,
2005-01-04, 00:00:00,VALID,919.008,VALID,0,VALID,95.0982,VALID,0.0339617,VALID,19.7032,VALID,129,VALID,0.859557,
2005-01-04, 00:01:00,VALID,919.009,VALID,0,VALID,95.0028,VALID,0.0509425,VALID,19.7261,VALID,130,VALID,0.769259,
2005-01-04, 00:02:00,VALID,919.013,VALID,0,VALID,94.9138,VALID,0.0679233,VALID,19.7358,VALID,103,VALID,0.897222,
2005-01-04, 00:03:00,VALID,918.999,VALID,0,VALID,94.8553,VALID,0,VALID,19.7387,VALID,115,VALID,0.837358,
2005-01-04, 00:04:00,VALID,918.988,VALID,0,VALID,94.8007,VALID,0.0339617,VALID,19.7487,VALID,130,VALID,0.79415,
2005-01-04, 00:05:00,VALID,918.971,VALID,0,VALID,94.7956,VALID,0,VALID,19.7648,VALID,118,VALID,0.829033,
2005-01-04, 00:06:00,VALID,918.962,VALID,0,VALID,94.7803,VALID,0.0169808,VALID,19.7611,VALID,153,VALID,0.910836,
2005-01-04, 00:07:00,VALID,918.952,VALID,0,VALID,94.7816,VALID,0.0169808,VALID,19.7845,VALID,157,VALID,0.731027,
2005-01-04, 00:08:00,VALID,918.955,VALID,0,VALID,94.7485,VALID,0,VALID,19.781,VALID,167,VALID,0.65987,
2005-01-04, 00:09:00,VALID,918.944,VALID,0,VALID,94.7269,VALID,0.0509425,VALID,19.7775,VALID,171,VALID,0.708147,
2005-01-04, 00:10:00,VALID,918.937,VALID,0,VALID,94.7473,VALID,0.0339617,VALID,19.7703,VALID,150,VALID,0.503906,
2005-01-04, 00:11:00,VALID,918.914,VALID,0,VALID,94.7879,VALID,0.0509425,VALID,19.7837,VALID,115,VALID,0.964472,
2005-01-04, 00:12:00,VALID,918.888,VALID,0,VALID,94.91,VALID,0.0509425,VALID,19.7777,VALID,139,VALID,0.276989,
2005-01-04, 00:13:00,VALID,918.877,VALID,0,VALID,95.0117,VALID,0.0509425,VALID,19.7643,VALID,142,VALID,0.135538,
2005-01-04, 00:14:00,VALID,918.861,VALID,0,VALID,95.0194,VALID,0.0339617,VALID,19.7519,VALID,135,VALID,0.446646,
2005-01-04, 00:15:00,VALID,918.832,VALID,0,VALID,95.0486,VALID,0.0679233,VALID,19.7318,VALID,116,VALID,0.155664,
2005-01-04, 00:16:00,VALID,918.811,VALID,0,VALID,95.0817,VALID,0.0339617,VALID,19.7288,VALID,92,VALID,0.406072,
2005-01-04, 00:17:00,VALID,918.807,VALID,0,VALID,95.0563,VALID,0.0509425,VALID,19.7323,VALID,149,VALID,0.692336,
2005-01-04, 00:18:00,VALID,918.806,VALID,0,VALID,95.0054,VALID,0.0849042,VALID,19.7251,VALID,117,VALID,0.733016,
2005-01-04, 00:19:00,VALID,918.801,VALID,0,VALID,95.0194,VALID,0.101885,VALID,19.736,VALID,90,VALID,0.667111,
2005-01-04, 00:20:00,VALID,918.8,VALID,0,VALID,95.0105,VALID,0.0339617,VALID,19.7285,VALID,107,VALID,0.587391,
2005-01-04, 00:21:00,VALID,918.813,VALID,0,VALID,94.952,VALID,0.0509425,VALID,19.7251,VALID,118,VALID,0.809593,
2005-01-04, 00:22:00,VALID,918.817,VALID,0,VALID,94.9583,VALID,0.0509425,VALID,19.7425,VALID,96,VALID,0.712054,
2005-01-04, 00:23:00,VALID,918.811,VALID,0,VALID,94.9622,VALID,0.0849042,VALID,19.7355,VALID,80,VALID,0.713299,
2005-01-04, 00:24:00,VALID,918.804,VALID,0,VALID,94.9927,VALID,0.0509425,VALID,19.742,VALID,139,VALID,0.561298,
2005-01-04, 00:25:00,VALID,918.799,VALID,0,VALID,94.9367,VALID,0.0509425,VALID,19.7355,VALID,127,VALID,0.616097,
2005-01-04, 00:26:00,VALID,918.772,VALID,0,VALID,94.952,VALID,0.0849042,VALID,19.7355,VALID,132,VALID,0.826853,
2005-01-04, 00:27:00,VALID,918.761,VALID,0,VALID,94.9342,VALID,0.0339617,VALID,19.7385,VALID,146,VALID,0.842722,
2005-01-04, 00:28:00,VALID,918.75,VALID,0,VALID,94.9113,VALID,0.0339617,VALID,19.7487,VALID,133,VALID,0.789931,
2005-01-04, 00:29:00,VALID,918.71,VALID,0,VALID,94.9571,VALID,0.0679233,VALID,19.7415,VALID,134,VALID,0.269345,
2005-01-04, 00:30:00,VALID,918.697,VALID,0,VALID,95.0028,VALID,0.0339617,VALID,19.7387,VALID,125,VALID,0.325763,
2005-01-04, 00:31:00,VALID,918.676,VALID,0,VALID,95.0588,VALID,0.0339617,VALID,19.739,VALID,148,VALID,0.383929,
2005-01-04, 00:32:00,VALID,918.658,VALID,0,VALID,94.9431,VALID,0.0169808,VALID,19.7258,VALID,119,VALID,0.315225,
2005-01-04, 00:33:00,VALID,918.642,VALID,0,VALID,94.9151,VALID,0.0169808,VALID,19.7318,VALID,135,VALID,0.271151,
2005-01-04, 00:34:00,VALID,918.643,VALID,0,VALID,94.882,VALID,-0.0849042,VALID,19.7435,VALID,137,VALID,0.0462891,
2005-01-04, 00:35:00,VALID,918.655,VALID,0,VALID,94.9889,VALID,-0.0849042,VALID,19.7405,VALID,137,VALID,0,
2005-01-04, 00:36:00,VALID,918.649,VALID,0,VALID,95.1758,VALID,-0.0679233,VALID,19.7206,VALID,137,VALID,0,
2005-01-04, 00:37:00,VALID,918.655,VALID,0,VALID,95.3144,VALID,-0.0509425,VALID,19.6851,VALID,137,VALID,0,
2005-01-04, 00:38:00,VALID,918.639,VALID,0,VALID,95.4187,VALID,-0.0849042,VALID,19.6724,VALID,137,VALID,0.0959302,
2005-01-04, 00:39:00,VALID,918.64,VALID,0,VALID,95.3881,VALID,-0.0849042,VALID,19.6461,VALID,137,VALID,0,
2005-01-04, 00:40:00,VALID,918.621,VALID,0,VALID,95.4352,VALID,-0.0679233,VALID,19.6436,VALID,137,VALID,0,
2005-01-04, 00:41:00,VALID,918.612,VALID,0,VALID,95.6476,VALID,-0.0679233,VALID,19.6433,VALID,137,VALID,0.00958807,
2005-01-04, 00:42:00,VALID,918.579,VALID,0,VALID,95.7188,VALID,-0.0849042,VALID,19.6108,VALID,137,VALID,0.106357,
2005-01-04, 00:43:00,VALID,918.561,VALID,0,VALID,95.7874,VALID,-0.101885,VALID,19.6083,VALID,289,VALID,0.53776,
2005-01-04, 00:44:00,VALID,918.555,VALID,0,VALID,95.8841,VALID,-0.101885,VALID,19.6274,VALID,314,VALID,0.145089,
2005-01-04, 00:45:00,VALID,918.547,VALID,0,VALID,95.8459,VALID,-0.0679233,VALID,19.6274,VALID,314,VALID,0,
2005-01-04, 00:46:00,VALID,918.531,VALID,0,VALID,95.7976,VALID,-0.101885,VALID,19.5979,VALID,314,VALID,0.00571646,
2005-01-04, 00:47:00,VALID,918.518,VALID,0,VALID,95.9146,VALID,-0.101885,VALID,19.5698,VALID,314,VALID,0.194957,
2005-01-04, 00:48:00,VALID,918.501,VALID,0,VALID,96.0494,VALID,-0.0849042,VALID,19.534,VALID,323,VALID,0.335193,
2005-01-04, 00:49:00,VALID,918.487,VALID,0,VALID,96.0863,VALID,-0.0169808,VALID,19.5131,VALID,89,VALID,0.489258,
2005-01-04, 00:50:00,VALID,918.468,VALID,0,VALID,95.9794,VALID,0,VALID,19.5298,VALID,112,VALID,0.499047,
2005-01-04, 00:51:00,VALID,918.449,VALID,0,VALID,95.8841,VALID,0,VALID,19.5318,VALID,112,VALID,0.284979,
2005-01-04, 00:52:00,VALID,918.419,VALID,0,VALID,95.8052,VALID,0.0339617,VALID,19.5541,VALID,139,VALID,0.406605,
2005-01-04, 00:53:00,VALID,918.392,VALID,0,VALID,95.7849,VALID,0,VALID,19.5777,VALID,139,VALID,0.334872,
2005-01-04, 00:54:00,VALID,918.385,VALID,0,VALID,95.6832,VALID,0.0169808,VALID,19.5777,VALID,155,VALID,0.490091,
2005-01-04, 00:55:00,VALID,918.356,VALID,0,VALID,95.5954,VALID,0,VALID,19.5904,VALID,169,VALID,0.413154,
2005-01-04, 00:56:00,VALID,918.343,VALID,0,VALID,95.5026,VALID,0,VALID,19.6135,VALID,124,VALID,0.401344,
2005-01-04, 00:57:00,VALID,918.324,VALID,0,VALID,95.4466,VALID,0,VALID,19.6098,VALID,121,VALID,0.391006,
2005-01-04, 00:58:00,VALID,918.323,VALID,0,VALID,95.3029,VALID,0,VALID,19.6262,VALID,124,VALID,0.582919,
2005-01-04, 00:59:00,VALID,918.29,VALID,0,VALID,95.2381,VALID,0,VALID,19.6458,VALID,123,VALID,0.125908,
2005-01-04, 01:00:00,VALID,918.275,VALID,0,VALID,95.2343,VALID,0,VALID,19.6461,VALID,123,VALID,0.0348011,
2005-01-04, 01:01:00,VALID,918.245,VALID,0,VALID,95.3246,VALID,0.0339617,VALID,19.6128,VALID,123,VALID,0.258194,
2005-01-04, 01:02:00,VALID,918.221,VALID,0,VALID,95.3983,VALID,0.0339617,VALID,19.5931,VALID,123,VALID,0.0977471,
2005-01-04, 01:03:00,VALID,918.203,VALID,0,VALID,95.4276,VALID,0,VALID,19.5872,VALID,122,VALID,0.432091,
2005-01-04, 01:04:00,VALID,918.177,VALID,0,VALID,95.5827,VALID,0.0169808,VALID,19.5613,VALID,111,VALID,0.626272,
2005-01-04, 01:05:00,VALID,918.15,VALID,0,VALID,95.6259,VALID,0.0169808,VALID,19.5549,VALID,113,VALID,0.966025,
2005-01-04, 01:06:00,VALID,918.122,VALID,0,VALID,95.5446,VALID,0,VALID,19.5844,VALID,113,VALID,0.695898,
2005-01-04, 01:07:00,VALID,918.104,VALID,0,VALID,95.4721,VALID,0.0169808,VALID,19.5936,VALID,115,VALID,0.609375,
2005-01-04, 01:08:00,VALID,918.094,VALID,0,VALID,95.4072,VALID,0,VALID,19.6031,VALID,119,VALID,0.736852,
2005-01-04, 01:09:00,VALID,918.087,VALID,0,VALID,95.3347,VALID,0.0169808,VALID,19.6167,VALID,121,VALID,0.791109,
2005-01-04, 01:10:00,VALID,918.089,VALID,0,VALID,95.2979,VALID,0,VALID,19.6264,VALID,128,VALID,0.957849,
2005-01-04, 01:11:00,VALID,918.074,VALID,0,VALID,95.2292,VALID,0,VALID,19.6361,VALID,123,VALID,0.99721,
2005-01-04, 01:12:00,VALID,918.057,VALID,0,VALID,95.1402,VALID,-0.0169808,VALID,19.6525,VALID,138,VALID,1.21595,
2005-01-04, 01:13:00,VALID,918.038,VALID,0,VALID,95.0295,VALID,0.0169808,VALID,19.6585,VALID,143,VALID,1.29403,
2005-01-04, 01:14:00,VALID,918.016,VALID,0,VALID,94.8719,VALID,-0.0169808,VALID,19.6776,VALID,140,VALID,1.58807,
2005-01-04, 01:15:00,VALID,917.979,VALID,0,VALID,94.7066,VALID,-0.0169808,VALID,19.7169,VALID,129,VALID,1.27836,
2005-01-04, 01:16:00,VALID,917.931,VALID,0,VALID,94.5794,VALID,0,VALID,19.739,VALID,126,VALID,1.19568,
2005-01-04, 01:17:00,VALID,917.902,VALID,0,VALID,94.4522,VALID,0.0169808,VALID,19.7653,VALID,132,VALID,1.71555,
2005-01-04, 01:18:00,VALID,917.871,VALID,0,VALID,94.3124,VALID,0,VALID,19.8009,VALID,128,VALID,1.42889,
2005-01-04, 01:19:00,VALID,917.85,VALID,0,VALID,94.2513,VALID,0.0169808,VALID,19.8168,VALID,140,VALID,1.46704,
2005-01-04, 01:20:00,VALID,917.824,VALID,0,VALID,94.2094,VALID,0,VALID,19.8232,VALID,145,VALID,1.29473,
2005-01-04, 01:21:00,VALID,917.813,VALID,0,VALID,94.245,VALID,-0.0169808,VALID,19.8297,VALID,121,VALID,1.04649,
2005-01-04, 01:22:00,VALID,917.802,VALID,0,VALID,94.3225,VALID,0,VALID,19.8168,VALID,123,VALID,1.67721,
2005-01-04, 01:23:00,VALID,917.788,VALID,0,VALID,94.4001,VALID,0.0169808,VALID,19.8098,VALID,125,VALID,1.71168,
2005-01-04, 01:24:00,VALID,917.766,VALID,0,VALID,94.4395,VALID,0,VALID,19.8036,VALID,131,VALID,1.44289,
2005-01-04, 01:25:00,VALID,917.754,VALID,0,VALID,94.5031,VALID,0,VALID,19.8006,VALID,123,VALID,1.26853,
2005-01-04, 01:26:00,VALID,917.743,VALID,0,VALID,94.587,VALID,0.0169808,VALID,19.7974,VALID,130,VALID,1.06341,
2005-01-04, 01:27:00,VALID,917.742,VALID,0,VALID,94.6188,VALID,0,VALID,19.7775,VALID,132,VALID,1.46999,
2005-01-04, 01:28:00,VALID,917.717,VALID,0,VALID,94.6608,VALID,0.0169808,VALID,19.7678,VALID,135,VALID,1.3283,
2005-01-04, 01:29:00,VALID,917.706,VALID,0,VALID,94.6875,VALID,0,VALID,19.7611,VALID,135,VALID,1.93182,
2005-01-04, 01:30:00,VALID,917.689,VALID,0,VALID,94.746,VALID,0,VALID,19.7713,VALID,144,VALID,1.79554,
2005-01-04, 01:31:00,VALID,917.687,VALID,0,VALID,94.7218,VALID,0,VALID,19.7748,VALID,155,VALID,1.90891,
2005-01-04, 01:32:00,VALID,917.673,VALID,0,VALID,94.7193,VALID,-0.0169808,VALID,19.775,VALID,157,VALID,1.20713,
2005-01-04, 01:33:00,VALID,917.653,VALID,0,VALID,94.7918,VALID,0,VALID,19.7648,VALID,142,VALID,1.28561,
2005-01-04, 01:34:00,VALID,917.64,VALID,0,VALID,94.8388,VALID,-0.0849042,VALID,19.7604,VALID,152,VALID,1.60084,
2005-01-04, 01:35:00,VALID,917.63,VALID,0,VALID,94.9291,VALID,-0.0849042,VALID,19.744,VALID,158,VALID,1.633,
2005-01-04, 01:36:00,VALID,917.592,VALID,0,VALID,95.0156,VALID,-0.0849042,VALID,19.7338,VALID,153,VALID,1.08884,
2005-01-04, 01:37:00,VALID,917.565,VALID,0,VALID,95.102,VALID,-0.0679233,VALID,19.7208,VALID,145,VALID,1.67873,
2005-01-04, 01:38:00,VALID,917.552,VALID,0,VALID,95.1961,VALID,-0.0849042,VALID,19.6943,VALID,150,VALID,1.65183,
2005-01-04, 01:39:00,VALID,917.545,VALID,0,VALID,95.2877,VALID,-0.0849042,VALID,19.6853,VALID,149,VALID,1.32884,
2005-01-04, 01:40:00,VALID,917.534,VALID,0,VALID,95.2584,VALID,-0.101885,VALID,19.6724,VALID,145,VALID,2.04492,
2005-01-04, 01:41:00,VALID,917.524,VALID,0,VALID,95.041,VALID,-0.0679233,VALID,19.7087,VALID,143,VALID,1.58817,
2005-01-04, 01:42:00,VALID,917.501,VALID,0,VALID,94.9685,VALID,-0.0169808,VALID,19.7276,VALID,142,VALID,1.30295,
2005-01-04, 01:43:00,VALID,917.49,VALID,0,VALID,94.9113,VALID,-0.0509425,VALID,19.7372,VALID,149,VALID,2.00457,
2005-01-04, 01:44:00,VALID,917.476,VALID,0,VALID,94.7447,VALID,-0.0679233,VALID,19.7534,VALID,137,VALID,1.87784,
2005-01-04, 01:45:00,VALID,917.461,VALID,0,VALID,94.5985,VALID,-0.0849042,VALID,19.7792,VALID,140,VALID,2.09322,
2005-01-04, 01:46:00,VALID,917.469,VALID,0,VALID,94.5387,VALID,-0.0849042,VALID,19.7954,VALID,136,VALID,1.63597,
2005-01-04, 01:47:00,VALID,917.456,VALID,0,VALID,94.5832,VALID,-0.0849042,VALID,19.7822,VALID,144,VALID,1.48456,
2005-01-04, 01:48:00,VALID,917.448,VALID,0,VALID,94.5451,VALID,-0.0849042,VALID,19.7859,VALID,134,VALID,1.87695,
2005-01-04, 01:49:00,VALID,917.426,VALID,0,VALID,94.4815,VALID,0.0509425,VALID,19.781,VALID,130,VALID,1.7222,
2005-01-04, 01:50:00,VALID,917.406,VALID,0,VALID,94.4548,VALID,0,VALID,19.781,VALID,129,VALID,1.52039,
2005-01-04, 01:51:00,VALID,917.386,VALID,0,VALID,94.4611,VALID,0.0509425,VALID,19.7745,VALID,128,VALID,1.55945,
2005-01-04, 01:52:00,VALID,917.351,VALID,0,VALID,94.3683,VALID,0.0169808,VALID,19.7648,VALID,128,VALID,1.83345,
2005-01-04, 01:53:00,VALID,917.345,VALID,0,VALID,94.2869,VALID,0.0169808,VALID,19.7777,VALID,131,VALID,1.43264,
2005-01-04, 01:54:00,VALID,917.325,VALID,0,VALID,94.2844,VALID,0,VALID,19.778,VALID,129,VALID,1.47599,
2005-01-04, 01:55:00,VALID,917.306,VALID,0,VALID,94.3543,VALID,0.0339617,VALID,19.7581,VALID,132,VALID,1.85842,
2005-01-04, 01:56:00,VALID,917.295,VALID,0,VALID,94.4472,VALID,0.0169808,VALID,19.7452,VALID,150,VALID,1.20219,
2005-01-04, 01:57:00,VALID,917.286,VALID,0,VALID,94.5349,VALID,0,VALID,19.7256,VALID,132,VALID,1.83498,
2005-01-04, 01:58:00,VALID,917.28,VALID,0,VALID,94.5565,VALID,0.0509425,VALID,19.7258,VALID,138,VALID,1.87188,
2005-01-04, 01:59:00,VALID,917.285,VALID,0,VALID,94.5807,VALID,0.0509425,VALID,19.7268,VALID,128,VALID,1.96075,
2005-01-04, 02:00:00,VALID,917.269,VALID,0,VALID,94.6532,VALID,0.0339617,VALID,19.7166,VALID,138,VALID,2.11555,
2005-01-04, 02:01:00,VALID,917.259,VALID,0,VALID,94.7155,VALID,0.0169808,VALID,19.7035,VALID,138,VALID,2.15536,
2005-01-04, 02:02:00,VALID,917.244,VALID,0,VALID,94.6633,VALID,0.0509425,VALID,19.7067,VALID,141,VALID,1.62718,
2005-01-04, 02:03:00,VALID,917.223,VALID,0,VALID,94.6455,VALID,0.0849042,VALID,19.69,VALID,134,VALID,2.22093,
2005-01-04, 02:04:00,VALID,917.219,VALID,0,VALID,94.6303,VALID,-0.0679233,VALID,19.7117,VALID,126,VALID,1.90898,
2005-01-04, 02:05:00,VALID,917.167,VALID,0,VALID,94.6341,VALID,-0.101885,VALID,19.7042,VALID,128,VALID,1.73933,
2005-01-04, 02:06:00,VALID,917.143,VALID,0,VALID,94.7015,VALID,-0.0509425,VALID,19.7052,VALID,121,VALID,1.34215,
2005-01-04, 02:07:00,VALID,917.119,VALID,0,VALID,94.8223,VALID,-0.0509425,VALID,19.6791,VALID,132,VALID,1.70749,
2005-01-04, 02:08:00,VALID,917.098,VALID,0,VALID,94.9278,VALID,-0.0509425,VALID,19.653,VALID,129,VALID,1.62891,
2005-01-04, 02:09:00,VALID,917.096,VALID,0,VALID,95.055,VALID,-0.0679233,VALID,19.6237,VALID,135,VALID,1.4026,
2005-01-04, 02:10:00,VALID,917.068,VALID,0,VALID,95.0982,VALID,-0.0339617,VALID,19.611,VALID,130,VALID,1.56014,
2005-01-04, 02:11:00,VALID,917.065,VALID,0,VALID,95.1631,VALID,-0.0339617,VALID,19.6048,VALID,125,VALID,1.52725,
2005-01-04, 02:12:00,VALID,917.085,VALID,0,VALID,95.1567,VALID,-0.0169808,VALID,19.5884,VALID,127,VALID,1.30153,
2005-01-04, 02:13:00,VALID,917.091,VALID,0,VALID,95.1554,VALID,-0.0509425,VALID,19.5892,VALID,124,VALID,1.6678,
2005-01-04, 02:14:00,VALID,917.096,VALID,0,VALID,95.2661,VALID,-0.0679233,VALID,19.5792,VALID,129,VALID,1.93527,
2005-01-04, 02:15:00,VALID,917.072,VALID,0,VALID,95.1338,VALID,-0.0849042,VALID,19.5981,VALID,137,VALID,2.64249,
2005-01-04, 02:16:00,VALID,917.072,VALID,0,VALID,94.9405,VALID,-0.0339617,VALID,19.6436,VALID,130,VALID,1.55256,
2005-01-04, 02:17:00,VALID,917.06,VALID,0,VALID,94.8464,VALID,-0.0679233,VALID,19.647,VALID,115,VALID,1.26908,
2005-01-04, 02:18:00,VALID,917.063,VALID,0,VALID,94.896,VALID,-0.0339617,VALID,19.6468,VALID,131,VALID,1.44398,
2005-01-04, 02:19:00,VALID,917.055,VALID,0,VALID,94.8604,VALID,-0.0339617,VALID,19.6272,VALID,127,VALID,1.62253,
2005-01-04, 02:20:00,VALID,917.036,VALID,0,VALID,94.8833,VALID,-0.0849042,VALID,19.6339,VALID,142,VALID,1.96275,
2005-01-04, 02:21:00,VALID,917.03,VALID,0,VALID,94.8236,VALID,-0.0849042,VALID,19.6535,VALID,138,VALID,1.52227,
2005-01-04, 02:22:00,VALID,917.013,VALID,0,VALID,94.8325,VALID,-0.0679233,VALID,19.6431,VALID,120,VALID,1.40749,
2005-01-04, 02:23:00,VALID,916.998,VALID,0,VALID,94.8998,VALID,-0.0679233,VALID,19.6239,VALID,109,VALID,1.29954,
2005-01-04, 02:24:00,VALID,916.974,VALID,0,VALID,95.0219,VALID,-0.0339617,VALID,19.5946,VALID,110,VALID,1.80107,
2005-01-04, 02:25:00,VALID,916.947,VALID,0,VALID,95.0385,VALID,-0.0169808,VALID,19.5884,VALID,126,VALID,1.3244,
2005-01-04, 02:26:00,VALID,916.92,VALID,0,VALID,95.0919,VALID,0,VALID,19.5921,VALID,131,VALID,1.55697,
2005-01-04, 02:27:00,VALID,916.916,VALID,0,VALID,95.1504,VALID,-0.0509425,VALID,19.5626,VALID,124,VALID,1.49579,
2005-01-04, 02:28:00,VALID,916.9,VALID,0,VALID,95.2025,VALID,-0.0339617,VALID,19.5464,VALID,135,VALID,1.31777,
2005-01-04, 02:29:00,VALID,916.883,VALID,0,VALID,95.205,VALID,-0.0339617,VALID,19.5303,VALID,144,VALID,1.81083,
2005-01-04, 02:30:00,VALID,916.856,VALID,0,VALID,95.1135,VALID,0,VALID,19.5429,VALID,135,VALID,2.24352,
2005-01-04, 02:31:00,VALID,916.854,VALID,0,VALID,94.7994,VALID,-0.0169808,VALID,19.5824,VALID,121,VALID,1.62574,
2005-01-04, 02:32:00,VALID,916.856,VALID,0,VALID,94.69,VALID,-0.0169808,VALID,19.6085,VALID,115,VALID,1.44975,
2005-01-04, 02:33:00,VALID,916.858,VALID,0,VALID,94.6328,VALID,-0.0509425,VALID,19.6205,VALID,110,VALID,1.46733,
2005-01-04, 02:34:00,VALID,916.846,VALID,0,VALID,94.5794,VALID,0.0169808,VALID,19.623,VALID,118,VALID,1.61504,
2005-01-04, 02:35:00,VALID,916.836,VALID,0,VALID,94.5018,VALID,0.0339617,VALID,19.6456,VALID,131,VALID,1.71148,
2005-01-04, 02:36:00,VALID,916.813,VALID,0,VALID,94.3416,VALID,0.0339617,VALID,19.658,VALID,122,VALID,1.80256,
2005-01-04, 02:37:00,VALID,916.798,VALID,0,VALID,94.2551,VALID,0.0849042,VALID,19.6808,VALID,136,VALID,1.47869,
2005-01-04, 02:38:00,VALID,916.777,VALID,0,VALID,94.1331,VALID,0.0509425,VALID,19.6744,VALID,132,VALID,1.66602,
2005-01-04, 02:39:00,VALID,916.787,VALID,0,VALID,94.0313,VALID,0.0509425,VALID,19.7067,VALID,120,VALID,1.7157,
2005-01-04, 02:40:00,VALID,916.784,VALID,0,VALID,94.0046,VALID,0.0509425,VALID,19.7169,VALID,120,VALID,1.66178,
2005-01-04, 02:41:00,VALID,916.788,VALID,0,VALID,93.9843,VALID,0.0679233,VALID,19.7035,VALID,111,VALID,1.40461,
2005-01-04, 02:42:00,VALID,916.751,VALID,0,VALID,93.9868,VALID,0.0509425,VALID,19.7171,VALID,120,VALID,1.38396,
2005-01-04, 02:43:00,VALID,916.711,VALID,0,VALID,93.8737,VALID,0.0339617,VALID,19.7102,VALID,132,VALID,1.34473,
2005-01-04, 02:44:00,VALID,916.691,VALID,0,VALID,93.8584,VALID,0.0169808,VALID,19.7201,VALID,136,VALID,1.55228,
2005-01-04, 02:45:00,VALID,916.665,VALID,0,VALID,93.9105,VALID,0.0509425,VALID,19.7141,VALID,143,VALID,1.82973,
2005-01-04, 02:46:00,VALID,916.641,VALID,0,VALID,93.9093,VALID,0.0679233,VALID,19.6972,VALID,147,VALID,1.61646,
2005-01-04, 02:47:00,VALID,916.642,VALID,0,VALID,93.983,VALID,0.0849042,VALID,19.6841,VALID,142,VALID,1.74947,
2005-01-04, 02:48:00,VALID,916.617,VALID,0,VALID,94.0924,VALID,0.0169808,VALID,19.6682,VALID,142,VALID,1.66697,
2005-01-04, 02:49:00,VALID,916.597,VALID,0,VALID,94.2297,VALID,-0.0679233,VALID,19.6694,VALID,141,VALID,2.06387,
2005-01-04, 02:50:00,VALID,916.576,VALID,0,VALID,94.2259,VALID,-0.0679233,VALID,19.6632,VALID,142,VALID,1.48118,
2005-01-04, 02:51:00,VALID,916.56,VALID,0,VALID,94.3391,VALID,-0.0679233,VALID,19.6505,VALID,133,VALID,1.52017,
2005-01-04, 02:52:00,VALID,916.557,VALID,0,VALID,94.5006,VALID,-0.0509425,VALID,19.6311,VALID,134,VALID,1.54135,
2005-01-04, 02:53:00,VALID,916.552,VALID,0,VALID,94.5845,VALID,-0.0339617,VALID,19.6215,VALID,130,VALID,1.20494,
2005-01-04, 02:54:00,VALID,916.538,VALID,0,VALID,94.6519,VALID,-0.0849042,VALID,19.5857,VALID,133,VALID,1.32067,
2005-01-04, 02:55:00,VALID,916.538,VALID,0,VALID,94.6341,VALID,-0.0849042,VALID,19.5663,VALID,133,VALID,1.58984,
2005-01-04, 02:56:00,VALID,916.547,VALID,0,VALID,94.437,VALID,-0.0169808,VALID,19.5824,VALID,120,VALID,1.4858,
2005-01-04, 02:57:00,VALID,916.522,VALID,0,VALID,94.362,VALID,-0.0339617,VALID,19.6078,VALID,130,VALID,1.87351,
2005-01-04, 02:58:00,VALID,916.52,VALID,0,VALID,94.2958,VALID,-0.0339617,VALID,19.6244,VALID,138,VALID,1.79616,
2005-01-04, 02:59:00,VALID,916.505,VALID,0,VALID,93.9779,VALID,-0.0679233,VALID,19.65,VALID,136,VALID,1.94531,
2005-01-04, 03:00:00,VALID,916.494,VALID,0,VALID,93.7401,VALID,-0.0169808,VALID,19.7054,VALID,134,VALID,1.40021,
2005-01-04, 03:01:00,VALID,916.506,VALID,0,VALID,93.6499,VALID,-0.0509425,VALID,19.7117,VALID,138,VALID,1.43083,
2005-01-04, 03:02:00,VALID,916.514,VALID,0,VALID,93.5634,VALID,-0.0169808,VALID,19.734,VALID,132,VALID,1.76749,
2005-01-04, 03:03:00,VALID,916.502,VALID,0,VALID,93.351,VALID,-0.0169808,VALID,19.7534,VALID,130,VALID,1.89785,
2005-01-04, 03:04:00,VALID,916.489,VALID,0,VALID,93.1056,VALID,-0.0849042,VALID,19.7924,VALID,136,VALID,1.2724,
2005-01-04, 03:05:00,VALID,916.492,VALID,0,VALID,93.0471,VALID,-0.0849042,VALID,19.8021,VALID,112,VALID,1.37348,
2005-01-04, 03:06:00,VALID,916.492,VALID,0,VALID,93.0141,VALID,-0.0849042,VALID,19.8215,VALID,91,VALID,1.48105,
2005-01-04, 03:07:00,VALID,916.498,VALID,0,VALID,92.8996,VALID,-0.0679233,VALID,19.8411,VALID,117,VALID,2.19415,
2005-01-04, 03:08:00,VALID,916.506,VALID,0,VALID,92.8093,VALID,-0.0509425,VALID,19.8699,VALID,111,VALID,1.4593,
2005-01-04, 03:09:00,VALID,916.523,VALID,0,VALID,92.8042,VALID,-0.0849042,VALID,19.8799,VALID,119,VALID,1.88496,
2005-01-04, 03:10:00,VALID,916.526,VALID,0,VALID,92.8793,VALID,-0.0679233,VALID,19.8796,VALID,116,VALID,2.00391,
2005-01-04, 03:11:00,VALID,916.54,VALID,0,VALID,93.0408,VALID,-0.0679233,VALID,19.8667,VALID,108,VALID,1.50744,
2005-01-04, 03:12:00,VALID,916.547,VALID,0,VALID,93.2862,VALID,-0.0169808,VALID,19.8339,VALID,101,VALID,1.61265,
2005-01-04, 03:13:00,VALID,916.559,VALID,0,VALID,93.4642,VALID,-0.0169808,VALID,19.8021,VALID,98,VALID,1.70703,
2005-01-04, 03:14:00,VALID,916.588,VALID,0,VALID,93.5863,VALID,-0.0339617,VALID,19.7892,VALID,113,VALID,1.95219,
2005-01-04, 03:15:00,VALID,916.605,VALID,0,VALID,93.6333,VALID,-0.0339617,VALID,19.783,VALID,112,VALID,2.6625,
2005-01-04, 03:16:00,VALID,916.614,VALID,0,VALID,93.6588,VALID,-0.0679233,VALID,19.7758,VALID,113,VALID,2.3532,
2005-01-04, 03:17:00,VALID,916.616,VALID,0,VALID,93.7783,VALID,-0.0339617,VALID,19.7728,VALID,109,VALID,1.93713,
2005-01-04, 03:18:00,VALID,916.621,VALID,0,VALID,93.9283,VALID,-0.0339617,VALID,19.7663,VALID,110,VALID,1.74162,
2005-01-04, 03:19:00,VALID,916.631,VALID,0,VALID,94.0708,VALID,-0.0169808,VALID,19.734,VALID,120,VALID,1.45217,
2005-01-04, 03:20:00,VALID,916.623,VALID,0,VALID,94.1394,VALID,-0.0169808,VALID,19.7084,VALID,124,VALID,1.84184,
2005-01-04, 03:21:00,VALID,916.628,VALID,0,VALID,94.1801,VALID,-0.0339617,VALID,19.6955,VALID,125,VALID,1.22904,
2005-01-04, 03:22:00,VALID,916.624,VALID,0,VALID,94.2361,VALID,-0.0849042,VALID,19.689,VALID,139,VALID,1.21987,
2005-01-04, 03:23:00,VALID,916.631,VALID,0,VALID,94.3073,VALID,-0.0849042,VALID,19.6699,VALID,141,VALID,1.61217,
2005-01-04, 03:24:00,VALID,916.631,VALID,0,VALID,94.3454,VALID,-0.0679233,VALID,19.6634,VALID,146,VALID,1.80562,
2005-01-04, 03:25:00,VALID,916.647,VALID,0,VALID,94.3581,VALID,-0.0339617,VALID,19.6694,VALID,115,VALID,1.66661,
2005-01-04, 03:26:00,VALID,916.664,VALID,0,VALID,94.4026,VALID,-0.0679233,VALID,19.6764,VALID,136,VALID,1.64881,
2005-01-04, 03:27:00,VALID,916.656,VALID,0,VALID,94.3734,VALID,-0.0849042,VALID,19.6729,VALID,130,VALID,1.84555,
2005-01-04, 03:28:00,VALID,916.653,VALID,0,VALID,94.2615,VALID,-0.0509425,VALID,19.7022,VALID,136,VALID,1.97166,
2005-01-04, 03:29:00,VALID,916.663,VALID,0,VALID,94.2742,VALID,-0.0509425,VALID,19.7079,VALID,139,VALID,2.42624,
2005-01-04, 03:30:00,VALID,916.659,VALID,0,VALID,94.1979,VALID,-0.0679233,VALID,19.7372,VALID,139,VALID,2.06827,
2005-01-04, 03:31:00,VALID,916.669,VALID,0,VALID,94.1547,VALID,-0.101885,VALID,19.7604,VALID,128,VALID,1.56445,